Regional Weather Roundup
Issued by NWS

Home | Current Version | Previous Version | Text Only | Print | Product List | Glossary Off
Versions: 1 2 3 4 5 6 7 8 9 10 11 12 13 14 15 16 17 18 19 20 21 22 23 24 25 26 27 28 29 30 31 32 33 34 35 36 37 38 39 40 41 42 43 44 45 46 47 48 49 50

000
ASUS43 KMKX 032100
RWRWI

WISCONSIN REGIONAL WEATHER ROUNDUP
NATIONAL WEATHER SERVICE MILWAUKEE/SULLIVAN WI
400 PM CDT FRI JUL 03 2015

NOTE: "FAIR" INDICATES FEW OR NO CLOUDS BELOW 12,000 FEET WITH NO
SIGNIFICANT WEATHER AND/OR OBSTRUCTIONS TO VISIBILITY.

WIZ001-002-006>008-014>016-023>028-032200-
NORTHWEST WISCONSIN

CITY           SKY/WX    TMP DP  RH WIND       PRES   REMARKS
SUPERIOR ARPT  MOSUNNY   81  65  58 W7        29.84F HX  82
ASHLAND        MOSUNNY   79  64  60 W9        29.85F HAZE    HX  81
HAYWARD        CLOUDY    76  61  59 W7        29.90S
SIREN          MOSUNNY   79  61  53 SW14      29.90F HX  80
CUMBERLAND     MOSUNNY   75  57  53 W12       29.92F
RICE LAKE      MOSUNNY   76  58  52 SW9       29.93F
CHETEK         CLOUDY    76  59  55 SW7       29.92S
LADYSMITH      PTSUNNY   76  58  53 SW9       29.93S
EAU CLAIRE     NOT AVBL
MENOMONIE      SUNNY     77  57  49 SW8       29.93F
NEW RICHMOND   MOSUNNY   77  57  48 W9        29.93F
OSCEOLA        MOSUNNY   79  58  49 SW8       29.94F HX  80
$$

WIZ003>005-009-010-017-018-032200-
NORTH CENTRAL WISCONSIN

CITY           SKY/WX    TMP DP  RH WIND       PRES   REMARKS
MANITOWISH WTR PTSUNNY   73  60  63 W8        29.90S
ARBOR VITAE    MOSUNNY   72  58  60 W9        29.91S
WOODRUFF       MOSUNNY   72  58  60 W9        29.91S
RHINELANDER    MOSUNNY   74  54  49 W10       29.92F
EAGLE RIVER    MOSUNNY   73  55  52 W16       29.90F
LAND O LAKES   MOSUNNY   73  56  54 W9        29.90F
PHILLIPS       MOSUNNY   73  58  59 SW9       29.91S
TOMAHAWK       PTSUNNY   72  53  50 SW5       29.92F
MEDFORD        SUNNY     74  55  50 W8        29.93F
MERRILL        PTSUNNY   75  57  52 W13       29.93S
$$

WIZ029-030-035-036-043>047-032200-
CENTRAL WISCONSIN

CITY           SKY/WX    TMP DP  RH WIND       PRES   REMARKS
WAUSAU         SUNNY     76  54  46 W9        29.91F
MOSINEE        MOSUNNY   73  57  56 SW9       29.94F
MARSHFIELD     MOSUNNY   76  55  48 SW7       29.93F
STEVENS POINT  MOSUNNY   73  55  52 SW5       29.94F
WAUPACA        MOSUNNY   79  52  38 W8        29.93F
WAUTOMA        NOT AVBL
WISC RAPIDS    MOSUNNY   77  54  44 SW8       29.94F
CAMP DOUGLAS   NOT AVBL
$$

WIZ011>013-019>022-031-037>040-048>050-032200-
NORTHEAST WISCONSIN

CITY           SKY/WX    TMP DP  RH WIND       PRES   REMARKS
ANTIGO         MOSUNNY   73  58  60 SW10G16   29.93F
SHAWANO        PTSUNNY   78  51  38 SW9       29.92F
OCONTO         PTSUNNY   75  55  49 SW8       29.90F
STURGEON BAY   MOSUNNY   73  54  49 SW9G20    29.93F
GREEN BAY      PTSUNNY   75  56  51 S7        29.92F
MANITOWOC      NOT AVBL
APPLETON       PTSUNNY   73  52  46 W8        29.94F
CLINTONVILLE   MOSUNNY   77  48  36 W10       29.91F
OSHKOSH        MOSUNNY   75  53  46 W6        29.93F
$$

WIZ032>034-041-042-053>061-032200-
SOUTHWEST WISCONSIN

CITY           SKY/WX    TMP DP  RH WIND       PRES   REMARKS
LA CROSSE      MOSUNNY   78  57  48 VRB5      29.93F
SPARTA         MOSUNNY   78  53  41 W3        29.95F
VIROQUA        MOSUNNY   74  56  53 SW5       29.97S
BOSCOBEL       SUNNY     77  57  50 W6        29.95F
PRAIRIE DU CHI MOSUNNY   75  53  45 CALM      29.96S
PLATTEVILLE    SUNNY     74  51  43 SW6       29.97S
$$

WIZ056-057-062-063-064-067-068-032200-
SOUTH CENTRAL WISCONSIN

CITY           SKY/WX    TMP DP  RH WIND       PRES   REMARKS
REEDSBURG      MOSUNNY   75  57  54 W9        29.95S
BARABOO/DELLS  SUNNY     76  54  46 SW7       29.95F
LONE ROCK      NOT AVBL
MINERAL POINT  SUNNY     75  48  38 CALM      29.97F
MADISON        MOSUNNY   76  53  44 VRB5      29.94F
MIDDLETON      SUNNY     76  49  39 W3        29.96F
WATERTOWN      SUNNY     74  56  52 SW7       29.95S
MONROE         MOSUNNY   73  54  49 W3        29.95F
JANESVILLE     MOSUNNY   77  54  44 CALM      29.94F
$$

WIZ051-052-058>065-066-070>072-032200-
SOUTHEAST WISCONSIN

CITY           SKY/WX    TMP DP  RH WIND       PRES   REMARKS
MILWAUKEE      PTSUNNY   70  52  52 E10       29.95F
WAUKESHA       MOSUNNY   73  54  49 W6        29.95F
MILWAUKEE/TIMM SUNNY     73  43  33 E9        29.95F
RACINE         SUNNY     70  54  56 E8        29.96F
BURLINGTON     SUNNY     74  52  46 CALM      29.94F
KENOSHA        MOSUNNY   73  53  49 E8        29.95F
FOND DU LAC    MOSUNNY   75  53  46 SW5       29.94F
SHEBOYGAN      SUNNY     73  50  44 S9        29.94F
WEST BEND      MOSUNNY   73  52  46 S7        29.95S
JUNEAU         SUNNY     73  54  50 SW6       29.96F
$$

LSZ147-162-032200-
LAKE SUPERIOR

STATION/POSITION TIME  TEMP    WIND        PRES    WAVE
                       AIR SEA DIR/SP/G            HT/PER
                 (UTC) (F)     (DEG/KT/KT) (MB)    (FT/S)
W MID LAKE BUOY  1950   50 39  220/ 12/ 12 1010.1F   2/ 4
DEVILS ISLAND    2000   67     230/ 10/ 14 1010.2F
SAXON HARBOR     2040   78     210/  5/  8 1010.8F
$$

LMZ867-665-643>646-032200-
LAKE MICHIGAN

STATION/POSITION TIME  TEMP    WIND        PRES    WAVE
                       AIR SEA DIR/SP/G            HT/PER
                 (UTC) (F)     (DEG/KT/KT) (MB)    (FT/S)
CHAMBERS ISLAND  2000   71     180/ 10/ 13 1012.5F
S GREEN BAY BUOY 2030   71 69  210/ 10/ 14 1014.4F
N MID LAKE BUOY  1950   50 44  200/ 12/ 14 1013.0F   1/ 3
NORTHPORT PIER   2000   68     150/  8/ 10 1012.5F
SISTER BAY       2044   73     200/ 16/ 19   N/A
ALGOMA LAKESHORE 1925          210/ 11/ 12   N/A
KEWAUNEE LAKESHO 2000   63     190/ 12/ 15 1013.3F
SHEBOYGAN LAKESH 2000   60     160/ 13/ 13 1014.6F
PORT WASHINGTON  2000   67     170/  5/  6 1015.2F
ATWATER BUOY     2000   62 61  130/  8/ 10 1015.8F
MILWAUKEE LAKESH 2000   61     120/  6/  7   N/A
KENOSHA   LAKESH 2000   65     130/  5/  6 1014.6F
$$

TC  - TEMPERATURE IN CELSIUS
VSB - VISIBILITY IN STATUTE MILES
WCI - WIND CHILL INDEX
HX  - HEAT INDEX



USA.gov is the U.S. government's official web portal to all federal, state and local government web resources and services.